Chicago Executive, IL

6:52 PM CDT on July 27, 2017 (GMT -0500)
Chicago Executive

Weather History for KPWK - March, 2012

Change the Weather History Date:

Sunday, March 18, 2012

  Actual Average Record
Temperature  
Mean Temperature 71 °F 38 °F  
Max Temperature 82 °F 47 °F 82 °F (2012)
Min Temperature 60 °F 30 °F 18 °F (2001)
Degree Days  
Heating Degree Days 0 27  
Month to date heating degree days 265 532  
Since 1 July heating degree days 5270  
Cooling Degree Days 6 0  
Month to date cooling degree days 11 0  
Year to date cooling degree days 11 0  
Growing Degree Days 22 (Base 50)    
Moisture  
Dew Point 55 °F    
Average Humidity 59    
Maximum Humidity 78    
Minimum Humidity 36    
Precipitation  
Precipitation 0.00 in 0.07 in 0.07 in (2004)
Month to date precipitation 0.36 1.17  
Year to date precipitation 1.99 3.75  
Sea Level Pressure  
Sea Level Pressure 30.00 in    
Wind  
Wind Speed 9 mph (South)    
Max Wind Speed 17 mph    
Max Gust Speed 22 mph    
Visibility 10 miles    
Events      
T = Trace of Precipitation, MM = Missing Value Source: NWS Daily Summary

Daily Weather History Graph

Daily Weather History Graph

Search for Another Location

Airport or City:

Trip Planner

Search our weather history database for the weather conditions in past years. The results will help you decide how hot, cold, wet, or windy it might be!

Date:

Astronomy

Mar. 18, 2012 Rise Set
Actual Time 6:57 AM CDT 7:02 PM CDT
Civil Twilight 6:29 AM CDT 7:30 PM CDT
Nautical Twilight 5:57 AM CDT 8:02 PM CDT
Astronomical Twilight 5:23 AM CDT 8:36 PM CDT
Moon 4:40 AM CDT (3/18) 3:25 PM CDT (3/18)
Length of Visible Light 13h 00m
Length of Day
12h 04m
Waning Crescent, 15% of the Moon is Illuminated
Mar 18
Waning Crescent
Mar 22
New
Mar 30
First Quarter
Apr 6
Full
Apr 13
Last Quarter

Hourly Weather History & Observations

Time (CDT) Temp. Heat Index Dew Point Humidity Pressure Visibility Wind Dir Wind Speed Gust Speed Precip Events Conditions
12:52 AM 68.0 °F - 55.9 °F 65% 30.00 in 10.0 mi SSW 4.6 mph - N/A   Clear
1:52 AM 66.9 °F - 55.9 °F 68% 30.00 in 10.0 mi SSW 4.6 mph - N/A   Clear
2:52 AM 66.0 °F - 52.0 °F 60% 30.01 in 10.0 mi SSW 5.8 mph - N/A   Clear
3:52 AM 64.9 °F - 52.0 °F 63% 30.01 in 10.0 mi South 6.9 mph - N/A   Clear
4:52 AM 62.1 °F - 52.0 °F 70% 30.02 in 10.0 mi South 5.8 mph - N/A   Clear
5:52 AM 63.0 °F - 53.1 °F 70% 30.02 in 10.0 mi South 4.6 mph - N/A   Clear
6:52 AM 61.0 °F - 53.1 °F 75% 30.03 in 10.0 mi SE 4.6 mph - N/A   Clear
7:52 AM 61.0 °F - 54.0 °F 78% 30.05 in 10.0 mi South 6.9 mph - N/A   Mostly Cloudy
8:52 AM 64.0 °F - 55.9 °F 75% 30.06 in 10.0 mi South 8.1 mph - N/A   Clear
9:52 AM 68.0 °F - 57.0 °F 68% 30.06 in 10.0 mi South 9.2 mph - N/A   Clear
10:52 AM 73.0 °F - 57.9 °F 59% 30.06 in 10.0 mi South 11.5 mph - N/A   Clear
11:52 AM 75.9 °F - 57.9 °F 54% 30.05 in 10.0 mi SSW 12.7 mph 17.3 mph N/A   Clear
12:52 PM 78.1 °F - 57.9 °F 50% 30.03 in 10.0 mi SSW 8.1 mph 17.3 mph N/A   Mostly Cloudy
1:52 PM 80.1 °F 80.0 °F 54.0 °F 40% 30.00 in 10.0 mi SSE 12.7 mph 19.6 mph N/A   Clear
2:52 PM 81.0 °F - 52.0 °F 36% 29.98 in 10.0 mi South 16.1 mph - N/A   Clear
3:52 PM 82.0 °F 81.3 °F 54.0 °F 38% 29.96 in 10.0 mi South 15.0 mph - N/A   Clear
5:52 PM 79.0 °F - 57.0 °F 47% 29.95 in 10.0 mi South 10.4 mph - N/A   Partly Cloudy
6:52 PM 73.0 °F - 53.1 °F 49% 29.95 in 10.0 mi ESE 5.8 mph - N/A   Clear
7:52 PM 72.0 °F - 53.1 °F 51% 29.96 in 10.0 mi SE 4.6 mph - N/A   Scattered Clouds
8:52 PM 68.0 °F - 54.0 °F 61% 29.96 in 10.0 mi SE 3.5 mph - N/A   Clear
9:52 PM 73.0 °F - 57.9 °F 59% 29.96 in 10.0 mi South 8.1 mph - N/A   Clear
10:52 PM 72.0 °F - 59.0 °F 64% 29.96 in 10.0 mi South 10.4 mph - N/A   Clear
11:52 PM 72.0 °F - 59.0 °F 64% 29.97 in 10.0 mi SSW 10.4 mph - N/A   Clear